Location: Blanot
(47.1713°N, 4.2340°E)
Time: 10:39:01
(UTC+00:00)

Okean 1-7 - Pass Details

Date: 14 July 2020
Orbit: 592 x 618 km, 82.5° (Epoch: 05 August)

Event Time Altitude Azimuth Distance (km) Brightness Sun altitude
Rises 01:11:32 0° 349° (NNW) 2,904 7.5 -18.7°
Reaches altitude 10° 01:13:46 10° 347° (NNW) 1,994 6.5 -18.6°
Maximum altitude 01:18:11 74° 263° (W) 647 3.0 -18.3°
Enters shadow 01:19:45 39° 188° (S) 935 3.5 -18.2°
